"Time","Temp","Dewpoint","Humidity","Pressure","Direction","Speed","Gust","Precip","PrecipRate"
"00:04:58","23.2","17.8","79.7","30.31","133","0","1.2","0.00","0.00"
"00:09:56","23","17.8","80.5","30.31","133","0","0","0.00","0.00"
"00:14:57","22.8","17.8","81","30.31","133","0","0","0.00","0.00"
"00:19:57","22.6","17.8","81.7","30.31","133","0","0","0.00","0.00"
"00:24:56","22.4","17.7","82","30.31","133","0","0","0.00","0.00"
"00:29:57","22.2","17.5","82.3","30.31","133","0","0","0.00","0.00"
"00:34:56","22","17.5","82.5","30.30","133","0","0","0.00","0.00"
"00:39:59","22","17.6","83","30.30","133","0","0","0.00","0.00"
"00:44:55","21.9","17.3","82.3","30.30","133","0","0","0.00","0.00"
"00:49:56","21.9","17.2","82","30.29","133","0","0","0.00","0.00"
"00:54:56","21.9","17.2","82","30.29","133","0","0","0.00","0.00"
"00:59:56","21.8","17.2","82","30.29","133","0","0","0.00","0.00"
"01:04:59","21.7","17.1","82","30.29","133","0","0","0.00","0.00"
"01:09:58","21.5","17.1","82.9","30.29","133","0","0","0.00","0.00"
"01:14:56","21.2","16.8","83","30.29","133","0","0","0.00","0.00"
"01:19:56","21","16.9","83.7","30.29","133","0","0","0.00","0.00"
"01:24:56","20.9","16.8","84","30.29","133","0","0","0.00","0.00"
"01:29:59","20.8","16.7","84","30.29","133","0","0","0.00","0.00"
"01:34:56","20.7","16.6","84","30.29","133","0","0","0.00","0.00"
"01:39:58","20.7","16.6","84","30.29","133","0","0","0.00","0.00"
"01:44:58","20.6","16.5","84.2","30.29","133","0","0","0.00","0.00"
"01:49:58","20.5","16.7","85","30.29","133","0","0","0.00","0.00"
"01:54:58","20.4","16.6","85","30.29","133","0","0","0.00","0.00"
"01:59:58","20.3","16.7","85.7","30.29","133","0","0","0.00","0.00"
"02:04:57","20.2","16.7","86","30.29","133","0","0","0.00","0.00"
"02:09:59","20.3","16.8","86","30.29","133","0","0","0.00","0.00"
"02:14:57","20.4","16.9","86","30.29","133","0","0","0.00","0.00"
"02:19:57","20.4","16.9","86","30.29","133","0","0","0.00","0.00"
"02:24:57","20.5","17","86","30.29","133","0","0","0.00","0.00"
"02:29:57","20.6","17.1","86","30.30","133","0","0","0.00","0.00"
"02:34:57","20.8","17.3","86","30.30","133","0","0","0.00","0.00"
"02:39:59","20.8","17.2","85.7","30.30","133","0","0","0.00","0.00"
"02:44:59","20.7","16.9","85","30.30","133","0","0","0.00","0.00"
"02:49:59","20.7","16.9","85","30.30","133","0","0","0.00","0.00"
"02:54:59","20.7","17.1","85.7","30.30","133","0","0","0.00","0.00"
"02:59:59","20.8","17","85","30.30","133","0","0","0.00","0.00"
"03:04:59","20.7","16.9","85","30.29","133","0","0","0.00","0.00"
"03:09:59","20.8","17","85","30.29","133","0","0","0.00","0.00"
"03:14:56","21.1","17.2","84.5","30.29","133","0","0","0.00","0.00"
"03:19:57","21.4","17.3","84","30.29","133","0","0","0.00","0.00"
"03:24:56","21.6","17.3","83.4","30.29","133","0","0","0.00","0.00"
"03:29:57","21.7","17.3","83","30.30","133","0","0","0.00","0.00"
"03:34:56","21.8","17.3","82.3","30.30","133","0","0","0.00","0.00"
"03:39:58","21.8","17.2","82","30.30","133","0","0","0.00","0.00"
"03:44:58","21.8","17.2","82","30.30","133","0","0","0.00","0.00"
"03:49:57","21.8","17.2","82","30.30","133","0","0","0.00","0.00"
"03:54:57","22","17.3","81.9","30.30","133","0","0","0.00","0.00"
"03:59:56","22.2","17.3","81","30.31","133","0","0","0.00","0.00"
"04:04:59","22","17.1","81","30.31","133","0","0","0.00","0.00"
"04:09:58","21.8","16.9","81","30.31","133","0","0","0.00","0.00"
"04:14:56","21.5","16.8","81.7","30.32","133","0","0","0.00","0.00"
"04:19:59","21.3","16.7","82","30.32","133","0","0","0.00","0.00"
"04:24:59","21.1","16.5","82","30.32","133","0","0","0.00","0.00"
"04:29:58","20.9","16.4","82.6","30.32","133","0","0","0.00","0.00"
"04:34:57","20.8","16.5","83","30.31","133","0","0","0.00","0.00"
"04:39:59","20.7","16.4","83","30.31","133","0","0","0.00","0.00"
"04:44:58","20.7","16.4","83","30.31","133","0","0","0.00","0.00"
"04:49:58","20.6","16.3","83","30.31","133","0","0","0.00","0.00"
"04:54:58","20.4","16.1","83","30.31","133","0","0","0.00","0.00"
"04:59:57","20.3","16.1","83.5","30.31","133","0","0","0.00","0.00"
"05:04:56","20.3","16.2","84","30.31","133","0","0","0.00","0.00"
"05:09:59","20.2","16.1","84","30.31","133","0","0","0.00","0.00"
"05:14:57","20.2","16.1","84","30.31","133","0","0","0.00","0.00"
"05:19:56","20","15.9","84","30.31","133","0","0","0.00","0.00"
"05:24:56","19.9","16","84.5","30.31","133","0","0","0.00","0.00"
"05:29:56","19.8","16","85","30.31","133","0","0","0.00","0.00"
"05:34:59","19.7","15.9","85","30.31","133","0","0","0.00","0.00"
"05:39:58","19.6","15.8","85.1","30.31","133","0","0","0.00","0.00"
"05:44:57","19.7","16","85.5","30.31","133","0","0","0.00","0.00"
"05:49:57","19.8","16","85.1","30.31","133","0","0","0.00","0.00"
"05:54:56","19.8","16","85","30.31","133","0","0","0.00","0.00"
"05:59:56","19.7","15.9","85","30.31","133","0","0","0.00","0.00"
"06:04:59","19.8","16","85","30.31","133","0","0","0.00","0.00"
"06:09:59","19.8","16.3","85.9","30.31","133","0","0","0.00","0.00"
"06:14:57","19.8","16.1","85.2","30.31","133","0","0","0.00","0.00"
"06:19:56","19.7","15.9","85","30.31","133","0","0","0.00","0.00"
"06:24:56","19.6","16","85.7","30.31","133","0","0","0.00","0.00"
"06:29:59","19.6","16.1","86","30.33","133","0","0","0.00","0.00"
"06:34:58","19.5","16","86","30.33","133","0","0","0.00","0.00"
"06:39:57","19.3","15.8","86","30.33","133","0","0","0.00","0.00"
"06:44:57","19.2","15.7","86","30.33","133","0","0","0.00","0.00"
"06:49:56","19","15.5","86","30.33","133","0","0","0.00","0.00"
"06:54:56","18.9","15.4","86","30.33","133","0","0","0.00","0.00"
"06:59:59","18.8","15.6","86.9","30.33","133","0","0","0.00","0.00"
"07:04:58","18.8","15.6","87","30.33","133","0","0","0.00","0.00"
"07:09:57","18.8","15.6","87","30.33","133","0","0","0.00","0.00"
"07:14:56","18.7","15.5","87","30.34","133","0","0","0.00","0.00"
"07:19:59","18.7","15.7","87.6","30.34","133","0","0","0.00","0.00"
"07:24:59","18.9","15.9","88","30.34","133","0","0","0.00","0.00"
"07:29:59","19.1","16","87.9","30.35","133","0","0","0.00","0.00"
"07:34:59","19.3","16.1","87","30.35","133","0","0","0.00","0.00"
"07:39:57","19.4","16.2","87","30.35","133","0","0","0.00","0.00"
"07:44:57","19.4","16.2","87","30.35","133","0","0","0.00","0.00"
"07:49:57","19.4","16.2","87","30.35","133","0","0","0.00","0.00"
"07:54:56","19.4","16.2","87","30.35","133","0","0","0.00","0.00"
"07:59:57","19.5","16.3","87","30.35","133","0","0","0.00","0.00"
"08:04:55","19.6","16.4","87","30.35","133","0","0","0.00","0.00"
"08:09:59","19.8","16.6","87","30.35","133","0","0","0.00","0.00"
"08:14:56","20","16.9","87.2","30.35","133","0","0","0.00","0.00"
"08:19:56","20.3","17","87","30.35","133","0","0","0.00","0.00"
"08:24:59","20.6","17.5","87.6","30.35","133","0","0","0.00","0.00"
"08:29:59","21.1","18.1","88","30.35","133","0","0","0.00","0.00"
"08:34:58","21.8","18.7","87.8","30.35","133","0","0","0.00","0.00"
"08:39:56","22.7","19.3","86.6","30.35","133","0","0","0.00","0.00"
"08:44:59","24","20.2","85","30.35","133","0","0","0.00","0.00"
"08:49:58","25.6","20.8","81.9","30.35","133","0","0","0.00","0.00"
"08:54:57","27","21.1","78.3","30.35","133","0","0","0.00","0.00"
"08:59:56","28.1","21.1","74.8","30.35","141","2","6","0.00","0.00"
"09:04:59","28.8","21.3","73.3","30.35","149","2.2","6","0.00","0.00"
"09:09:57","29.2","21.5","72.6","30.35","186","1.1","3.6","0.00","0.00"
"09:14:59","29.7","21.5","71.3","30.36","186","1","2.4","0.00","0.00"
"09:19:58","30","21.5","70.1","30.36","186","0","1.2","0.00","0.00"
"09:24:58","30.6","21.7","69.2","30.36","186","0","0","0.00","0.00"
"09:29:56","31.2","22.1","68.7","30.36","186","0.2","4.8","0.00","0.00"
"09:34:59","31.9","22","66.5","30.36","183","2.3","4.8","0.00","0.00"
"09:39:56","32.2","22.3","66.4","30.36","182","2.7","6","0.00","0.00"
"09:44:59","32.4","22.8","67.1","30.37","183","2.3","4.8","0.00","0.00"
"09:49:57","32.9","22.7","65.8","30.37","182","1.7","3.6","0.00","0.00"
"09:54:56","33.6","23.1","65","30.37","182","1.4","3.6","0.00","0.00"
"09:59:59","34.2","23.4","64.3","30.37","182","1.4","3.6","0.00","0.00"
"10:04:57","34.7","23.6","63.7","30.37","180","2.1","3.6","0.00","0.00"
"10:09:56","35.2","23.9","63","30.37","178","1.8","3.6","0.00","0.00"
"10:14:57","35.8","24.6","63.5","30.37","178","1.5","3.6","0.00","0.00"
"10:19:59","36.3","24.5","61.8","30.37","143","1.8","4.8","0.00","0.00"
"10:24:58","36.8","25.1","62.1","30.37","152","2.8","6","0.00","0.00"
"10:29:57","37","25.2","61.9","30.37","176","3","6","0.00","0.00"
"10:34:59","37.5","25.9","62.7","30.37","182","2","6","0.00","0.00"
"10:39:57","38","25.9","61.4","30.37","184","2.3","5.8","0.00","0.00"
"10:44:56","38.6","25.7","59.6","30.37","153","2.3","4.8","0.00","0.00"
"10:49:59","39.2","26.2","59.3","30.37","193","3","7.2","0.00","0.00"
"10:54:58","39.7","26.2","58.1","30.37","142","2.9","4.8","0.00","0.00"
"10:59:57","40.1","26.4","57.7","30.37","160","2.8","6","0.00","0.00"
"11:04:58","40.5","26.9","58","30.36","141","1.7","6","0.00","0.00"
"11:09:57","41","27.1","57.4","30.36","150","2","4.8","0.00","0.00"
"11:14:59","41.5","27.2","56.6","30.36","120","2.6","4.8","0.00","0.00"
"11:19:59","42","27.6","56.5","30.35","190","2.7","6","0.00","0.00"
"11:24:57","42.3","27.7","56","30.35","190","2.3","4.8","0.00","0.00"
"11:29:57","42.6","27.7","55.3","30.35","147","1.9","3.6","0.00","0.00"
"11:34:57","43.1","28","55","30.35","116","2.1","6","0.00","0.00"
"11:39:58","43.3","27.9","54.3","30.35","126","3.1","7.2","0.00","0.00"
"11:44:57","43.6","28.3","54.6","30.35","182","3.5","7.2","0.00","0.00"
"11:49:57","44.1","28.3","53.7","30.34","128","3.3","7.2","0.00","0.00"
"11:54:56","44.3","28.5","53.7","30.34","139","3.6","10.8","0.00","0.00"
"11:59:59","44.6","28.4","52.9","30.34","134","3.2","9.6","0.00","0.00"
"12:04:57","44.7","28.6","53","30.33","126","4.1","9.6","0.00","0.00"
"12:09:59","44.8","28.9","53.4","30.33","168","4.5","9.6","0.00","0.00"
"12:14:57","45.3","29.1","53","30.33","185","3.8","9.2","0.00","0.00"
"12:19:56","45.8","29.4","52.5","30.32","184","3.7","8.1","0.00","0.00"
"12:24:59","46.2","30","52.9","30.32","112","2.7","6","0.00","0.00"
"12:29:58","46.7","29.8","51.6","30.32","156","3.4","12","0.00","0.00"
"12:34:56","47.1","30.1","51.3","30.32","165","3.1","7.2","0.00","0.00"
"12:39:58","47.4","29.8","50.1","30.32","151","3.8","10.8","0.00","0.00"
"12:44:57","47.3","30.1","51","30.32","152","3.7","8.4","0.00","0.00"
"12:49:48","47.4","30.2","51.1","30.32","121","3","6","0.00","0.00"
"12:54:59","47.6","29.9","50","30.32","168","5","12","0.00","0.00"
"12:59:59","47.8","30.1","50.1","30.32","171","4.2","10.4","0.00","0.00"
"13:04:57","48","30.1","49.8","30.31","178","3.4","7.2","0.00","0.00"
"13:09:56","48.1","30.2","49.7","30.31","178","2.7","4.8","0.00","0.00"
"13:14:58","48","30.1","49.7","30.31","178","3.2","6","0.00","0.00"
"13:19:57","48.1","30.2","49.8","30.30","196","5.5","10.8","0.00","0.00"
"13:24:56","48.3","30.4","49.8","30.30","203","5.3","10.4","0.00","0.00"
"13:29:56","48.9","31.1","49.9","30.30","194","4.5","12","0.00","0.00"
"13:34:59","49.5","30.9","48.6","30.30","201","5.4","8.4","0.00","0.00"
"13:39:57","49.8","31.2","48.6","30.30","181","4","8.1","0.00","0.00"
"13:44:56","50","31.1","48.1","30.30","185","4.4","10.8","0.00","0.00"
"13:49:59","50.3","31.1","47.5","30.30","179","4.1","8.4","0.00","0.00"
"13:54:59","50","30.7","47.3","30.30","206","3.7","8.4","0.00","0.00"
"13:59:59","49.3","30.5","48.2","30.30","203","3.3","8.1","0.00","0.00"
"14:04:57","49","30.8","49.2","30.30","188","3","6","0.00","0.00"
"14:09:59","49.3","30.8","48.9","30.30","180","3.6","7.2","0.00","0.00"
"14:14:57","49.6","31.3","49.2","30.30","182","2.8","6","0.00","0.00"
"14:19:57","50.2","31.6","48.6","30.30","197","3.7","8.4","0.00","0.00"
"14:24:57","50.7","31.4","47.5","30.30","201","5","12","0.00","0.00"
"14:29:56","50.9","31.6","47.5","30.30","188","4.1","8.4","0.00","0.00"
"14:34:56","51","31.4","46.8","30.30","213","3.6","6","0.00","0.00"
"14:39:59","51.1","31.7","47.2","30.30","228","4.6","12","0.00","0.00"
"14:44:58","51.3","31.6","46.8","30.30","203","3.5","7.2","0.00","0.00"
"14:49:58","51.6","32","47","30.30","216","3.2","6","0.00","0.00"
"14:54:58","51.9","31.8","46.1","30.30","191","3.4","6","0.00","0.00"
"14:59:57","52","31.6","45.7","30.30","180","3.4","8.4","0.00","0.00"
"15:04:56","52.1","31.9","46","30.30","161","1.9","4.8","0.00","0.00"
"15:09:59","52.1","31.7","45.7","30.30","179","2.9","6","0.00","0.00"
"15:14:58","52.1","31.9","46","30.30","188","2.3","6","0.00","0.00"
"15:19:59","52.4","31.8","45.2","30.30","188","2.4","6","0.00","0.00"
"15:24:56","52.5","31.7","44.8","30.30","184","3.5","8.4","0.00","0.00"
"15:29:56","52.2","31.5","45","30.30","206","3.7","6","0.00","0.00"
"15:34:56","51.8","31.2","45.2","30.29","197","3.7","6","0.00","0.00"
"15:39:59","51.5","31.2","45.7","30.29","193","3.6","6","0.00","0.00"
"15:44:59","51.5","31.4","46","30.29","171","3.2","4.8","0.00","0.00"
"15:49:59","51.2","31.1","46","30.29","184","3","4.8","0.00","0.00"
"15:54:58","51","30.9","46.1","30.29","184","1.6","4.8","0.00","0.00"
"15:59:54","50.8","31.1","46.5","30.30","184","2.5","4.8","0.00","0.00"
"16:04:57","50.8","31","46.4","30.30","184","2","4.6","0.00","0.00"
"16:09:56","50.9","31.1","46.7","30.30","184","2.3","3.6","0.00","0.00"
"16:14:58","50.8","31.1","46.7","30.30","184","1.8","7.2","0.00","0.00"
"16:19:58","51","31.5","47","30.30","184","0.9","3.6","0.00","0.00"
"16:24:58","51.2","31.1","46","30.30","184","0.2","2.3","0.00","0.00"
"16:29:54","51","30.9","46","30.30","184","0.4","2.4","0.00","0.00"
"16:34:58","50.5","30.7","46.4","30.30","184","1.3","3.6","0.00","0.00"
"16:39:56","49.9","30.6","47.2","30.30","184","0.6","2.4","0.00","0.00"
"16:44:56","49.3","30.4","48","30.31","184","0.6","2.4","0.00","0.00"
"16:49:57","48.8","30.3","48.7","30.31","184","0.6","2.4","0.00","0.00"
"16:54:57","48.3","30","49","30.31","184","0","0","0.00","0.00"
"16:59:58","47.8","30","50.1","30.31","184","0","0","0.00","0.00"
"17:04:57","47.1","29.9","51","30.31","184","0","0","0.00","0.00"
"17:09:56","46.3","29.5","51.7","30.31","184","0","0","0.00","0.00"
"17:14:59","45.3","29.3","53.4","30.31","184","0","0","0.00","0.00"
"17:19:56","44.3","29.1","55","30.31","184","0","0","0.00","0.00"
"17:24:57","43.3","28.8","56.5","30.31","184","0","0","0.00","0.00"
"17:29:58","42.3","28.5","57.8","30.32","184","0","0","0.00","0.00"
"17:34:58","41.5","28.1","58.7","30.32","184","0","0","0.00","0.00"
"17:39:57","40.7","28","60.4","30.32","184","0","0","0.00","0.00"
"17:44:58","39.9","27.8","61.8","30.32","184","0","0","0.00","0.00"
"17:49:58","39","27.6","63.4","30.32","184","0","0","0.00","0.00"
"17:54:59","38.2","27.4","64.7","30.32","184","0","0","0.00","0.00"
"17:59:56","37.5","27.3","66.1","30.33","184","0","0","0.00","0.00"
"18:04:59","36.9","27","67.1","30.33","184","0","0","0.00","0.00"
"18:09:58","36.3","26.8","68.2","30.33","184","0","0","0.00","0.00"
"18:14:57","35.8","26.6","69","30.33","184","0","0","0.00","0.00"
"18:19:58","35.3","26.4","69.9","30.33","184","0","0","0.00","0.00"
"18:24:58","34.7","26.2","70.9","30.33","184","0","0","0.00","0.00"
"18:29:58","34.2","26.1","72.2","30.33","184","0","0","0.00","0.00"
"18:34:59","33.8","26.3","73.7","30.33","184","0","0","0.00","0.00"
"18:39:58","33.5","26.1","74","30.33","184","0","0","0.00","0.00"
"18:44:58","33.2","25.9","74.4","30.34","184","0","0","0.00","0.00"
"18:49:59","32.8","25.7","75","30.34","184","0","0","0.00","0.00"
"18:54:59","32.4","25.4","75","30.34","184","0","0","0.00","0.00"
"18:59:59","32","25.3","75.9","30.34","184","0","0","0.00","0.00"
"19:04:59","31.7","25.2","76.7","30.34","184","0","0","0.00","0.00"
"19:09:58","31.5","25.2","77.3","30.34","184","0","0","0.00","0.00"
"19:14:58","31.3","25.2","78","30.34","184","0","0","0.00","0.00"
"19:19:59","31","25","78.3","30.34","184","0","0","0.00","0.00"
"19:24:56","30.7","25","79","30.34","184","0","0","0.00","0.00"
"19:29:56","30.6","25.1","79.7","30.34","184","0","0","0.00","0.00"
"19:34:57","30.4","25","80","30.34","184","0","0","0.00","0.00"
"19:39:59","30.2","24.8","80","30.34","184","0","0","0.00","0.00"
"19:44:59","30","24.6","80","30.34","184","0","0","0.00","0.00"
"19:49:56","29.8","24.5","80.5","30.34","184","0","0","0.00","0.00"
"19:54:56","29.6","24.5","81","30.34","184","0","0","0.00","0.00"
"19:59:56","29.4","24.3","81","30.34","184","0","0","0.00","0.00"
"20:04:59","29.2","24.2","81.5","30.34","184","0","0","0.00","0.00"
"20:09:58","28.9","24.1","82","30.34","184","0","0","0.00","0.00"
"20:14:56","28.7","23.9","82","30.34","184","0","0","0.00","0.00"
"20:19:57","28.5","23.9","82.5","30.34","184","0","0","0.00","0.00"
"20:24:57","28.4","23.9","83","30.34","184","0","0","0.00","0.00"
"20:29:57","28.3","23.8","83.1","30.34","184","0","0","0.00","0.00"
"20:34:57","28.2","24","84","30.34","184","0","0","0.00","0.00"
"20:39:56","28.1","23.9","84","30.34","184","0","0","0.00","0.00"
"20:44:57","28.1","23.9","84","30.34","184","0","0","0.00","0.00"
"20:49:57","27.9","23.7","84","30.33","184","0","0","0.00","0.00"
"20:54:58","27.7","23.5","84","30.33","184","0","0","0.00","0.00"
"20:59:58","27.6","23.4","84","30.33","184","0","0","0.00","0.00"
"21:04:57","27.4","23.5","84.9","30.33","184","0","0","0.00","0.00"
"21:09:56","27.3","23.4","85","30.33","184","0","0","0.00","0.00"
"21:14:59","27.2","23.5","85.5","30.33","184","0","0","0.00","0.00"
"21:19:56","27.1","23.5","86","30.33","184","0","0","0.00","0.00"
"21:24:57","27.1","23.5","86","30.33","184","0","0","0.00","0.00"
"21:29:57","27.1","23.5","86","30.33","184","0","0","0.00","0.00"
"21:34:58","27.2","23.6","86","30.32","184","0","0","0.00","0.00"
"21:39:57","27.2","23.7","86.8","30.32","184","0","0","0.00","0.00"
"21:44:58","27.3","23.9","87","30.32","184","0","0","0.00","0.00"
"21:49:58","27.3","23.9","87","30.32","184","0","0","0.00","0.00"
"21:54:58","27.4","24","87","30.32","184","0","0","0.00","0.00"
"21:59:59","27.4","24","86.9","30.32","184","0","1.2","0.00","0.00"
"22:04:58","27.4","23.9","86.5","30.32","184","0","1.2","0.00","0.00"
"22:09:57","27.6","24","86.2","30.32","184","0","0","0.00","0.00"
"22:14:56","27.9","24.5","86.9","30.32","184","0","0","0.00","0.00"
"22:19:57","28.1","24.4","85.8","30.31","184","0","0","0.00","0.00"
"22:24:57","28","24.1","85","30.31","184","0","0","0.00","0.00"
"22:29:57","27.8","23.9","85","30.31","184","0","0","0.00","0.00"
"22:34:59","27.6","23.9","85.7","30.31","184","0","0","0.00","0.00"
"22:39:57","27.6","24","86","30.31","184","0","0","0.00","0.00"
"22:44:58","27.6","24","86","30.31","184","0","0","0.00","0.00"
"22:49:59","27.6","24","86","30.31","184","0","0","0.00","0.00"
"22:54:59","27.5","23.9","86","30.31","184","0","0","0.00","0.00"
"22:59:56","27.4","23.8","86","30.31","184","0","0","0.00","0.00"
"23:04:55","27.4","23.8","86","30.31","184","0","0","0.00","0.00"
"23:09:59","27.3","23.7","86","30.31","184","0","0","0.00","0.00"
"23:14:59","27.2","23.6","86","30.31","184","0","0","0.00","0.00"
"23:19:59","27.1","23.5","86","30.30","184","0","0","0.00","0.00"
"23:24:56","27","23.5","86.2","30.30","184","0","0","0.00","0.00"
"23:29:56","27","23.6","86.8","30.30","184","0","0","0.00","0.00"
"23:34:59","27","23.6","87","30.30","184","0","0","0.00","0.00"
"23:39:58","27.1","23.7","87","30.30","184","0","0","0.00","0.00"
"23:44:58","27.3","23.9","87","30.30","184","0","0","0.00","0.00"
"23:49:59","27.5","24.1","87","30.30","184","0","0","0.00","0.00"
"23:54:59","27.7","24.3","86.8","30.30","184","0","0","0.00","0.00"
